Printer-friendly version

IAU Minor Planet Center

Minor Planet Center

MPEC 2005-F28 : 2005 FV2

The following Minor Planet Electronic Circular may be linked-to from your own Web pages, but must not otherwise be redistributed electronically.


Read MPEC 2005-F27 Read MPEC 2005-F29


M.P.E.C. 2005-F28                                Issued 2005 Mar. 19, 23:14 UT

     The Minor Planet Electronic Circulars contain information on unusual
         minor planets and routine data on comets.  They are published
   on behalf of Commission 20 of the International Astronomical Union by the
          Minor Planet Center, Smithsonian Astrophysical Observatory,
                          Cambridge, MA 02138, U.S.A.

                  Supported in part by the Brinson Foundation
             Prepared using the Tamkin Foundation Computer Network

                              MPC@CFA.HARVARD.EDU
          URL http://cfa-www.harvard.edu/iau/mpc.html  ISSN 1523-6714

                                   2005 FV2

Observations:
     K05F02V* C2005 03 18.90481 11 55 15.59 +70 09 01.2          18.1 R EF028106
     K05F02V  C2005 03 18.91052 11 55 12.26 +70 08 09.2          18.0 R EF028106
     K05F02V  C2005 03 18.91622 11 55 09.29 +70 07 18.5          17.8 R EF028106
     K05F02V  C2005 03 19.00994 11 54 17.05 +69 53 11.7          18.8 R EF028106
     K05F02V  C2005 03 19.01097 11 54 16.89 +69 53 03.1          18.9 R EF028106
     K05F02V  C2005 03 19.01202 11 54 16.07 +69 52 51.7          18.9 R EF028106
     K05F02V  C2005 03 19.04809 11 53 56.42 +69 47 24.8          17.9 R EF028106
     K05F02V  C2005 03 19.04879 11 53 56.07 +69 47 18.6          18.3 R EF028106
     K05F02V  C2005 03 19.04949 11 53 55.65 +69 47 12.1          17.8 R EF028106
     K05F02V  C2005 03 19.10429 11 53 27.64 +69 38 54.6                 EF028J95
     K05F02V  C2005 03 19.11128 11 53 23.72 +69 37 50.8          18.4 R EF028J95
     K05F02V  C2005 03 19.82662 11 47 57.95 +67 51 00.0                 EF028J95
     K05F02V  C2005 03 19.83644 11 47 53.67 +67 49 33.8                 EF028J95
     K05F02V  C2005 03 19.84603 11 47 49.55 +67 48 09.4          17.9 R EF028J95
     K05F02V  C2005 03 19.91586 11 47 19.08 +67 37 59.7                 EF028143
     K05F02V  C2005 03 19.91863 11 47 17.87 +67 37 35.2          17.8 R EF028143
     K05F02V  C2005 03 19.92138 11 47 16.69 +67 37 10.9          18.0 R EF028143
     K05F02V  C2005 03 19.92411 11 47 15.49 +67 36 46.4          18.0 R EF028143

Observer details:
106 Crni Vrh.  Observer S. Maticic.  0.60-m f/3.3 Deltagraph + CCD.
143 Gnosca.  Observer S. Sposetti.  0.40-m f/4 reflector + CCD.
J95 Great Shefford.  Observer P. Birtwhistle.  0.30-m f/6.3 Schmidt-Cassegrain
    + CCD.

Orbital elements:
2005 FV2
Epoch 2005 Mar. 11.0 TT = JDT 2453440.5                 MPC
M  16.53908              (2000.0)            P               Q
n   0.33475629     Peri.   41.38153     +0.28927555     -0.94054607
a   2.0542354      Node    32.98457     +0.76958021     +0.11790797
e   0.7050118      Incl.   19.08695     +0.56926791     +0.31854482
P   2.94           H   19.2           G   0.15
From 18 observations 2005 Mar. 18-19.

Ephemeris:
2005 FV2                 a,e,i = 2.05, 0.71, 19                  q = 0.6060
Date    TT    R. A. (2000) Decl.     Delta      r     Elong.  Phase     V
2005 03 11    18 53.13   +83 19.1    0.265    1.034    91.3    73.9    19.0
2005 03 21    11 40.74   +65 00.0    0.297    1.153   114.7    51.7    18.8
2005 03 31    11 16.80   +45 00.9    0.382    1.269   127.7    38.5    19.2
2005 04 10    11 12.53   +32 01.5    0.502    1.383   130.6    33.4    19.8
2005 04 20    11 14.15   +23 26.2    0.646    1.492   128.1    32.0    20.5
2005 04 30    11 18.81   +17 23.3    0.806    1.597   123.1    31.9    21.1
2005 05 10    11 25.42   +12 50.3    0.979    1.698   117.3    31.9    21.7

Timothy B. Spahr             (C) Copyright 2005 MPC           M.P.E.C. 2005-F28

Read MPEC 2005-F27 Read MPEC 2005-F29


Our Web policy. Index to the CBAT/MPC/ICQ pages.


Valid HTML 4.01!